Time,TemperatureF,DewpointF,PressureIn,WindDirection,WindDirectionDegrees,WindSpeedMPH,WindSpeedGustMPH,Humidity,HourlyPrecipIn,Conditions,Clouds,dailyrainin,SoftwareType,DateUTC
2013-06-17 00:02:00,69.0,68.0,29.93,SSE,149,0.0,1.0,98,0.00,,,0.14,,2013-06-17 04:02:00,
2013-06-17 00:12:00,69.0,68.0,29.93,SSE,149,0.0,0.0,98,0.00,,,0.14,,2013-06-17 04:12:00,
2013-06-17 00:22:00,69.0,68.0,29.93,SSE,149,0.0,0.0,98,0.00,,,0.14,,2013-06-17 04:22:00,
2013-06-17 00:34:00,69.0,68.0,29.94,SSE,149,0.0,0.0,98,0.00,,,0.14,,2013-06-17 04:34:00,
2013-06-17 00:43:00,69.0,69.0,29.94,SSE,149,0.0,0.0,99,0.00,,,0.14,,2013-06-17 04:43:00,
2013-06-17 00:53:00,70.0,70.0,29.94,SSE,149,0.0,1.0,99,0.00,,,0.14,,2013-06-17 04:53:00,
2013-06-17 01:02:00,69.0,69.0,29.93,SSE,149,0.0,1.0,99,0.00,,,0.14,,2013-06-17 05:02:00,
2013-06-17 01:12:00,69.0,69.0,29.93,SSE,149,0.0,1.0,99,0.00,,,0.14,,2013-06-17 05:12:00,
2013-06-17 01:22:00,69.0,69.0,29.93,SSE,149,0.0,1.0,99,0.00,,,0.14,,2013-06-17 05:22:00,
2013-06-17 01:33:00,69.0,69.0,29.93,SSE,149,0.0,1.0,99,0.00,,,0.14,,2013-06-17 05:33:00,
2013-06-17 01:44:00,69.0,69.0,29.93,SSE,149,0.0,0.0,99,0.00,,,0.14,,2013-06-17 05:44:00,
2013-06-17 01:53:00,69.0,69.0,29.93,SSE,149,0.0,2.0,99,0.00,,,0.14,,2013-06-17 05:53:00,
2013-06-17 02:02:00,69.0,69.0,29.93,SSE,149,0.0,1.0,99,0.00,,,0.14,,2013-06-17 06:02:00,
2013-06-17 02:12:00,69.0,69.0,29.93,SSE,149,0.0,1.0,99,0.00,,,0.14,,2013-06-17 06:12:00,
2013-06-17 02:22:00,69.0,69.0,29.92,SSE,149,0.0,1.0,99,0.00,,,0.14,,2013-06-17 06:22:00,
2013-06-17 02:33:00,69.0,69.0,29.92,SSE,149,0.0,1.0,99,0.00,,,0.14,,2013-06-17 06:33:00,
2013-06-17 02:43:00,69.0,69.0,29.93,SSE,149,0.0,0.0,99,0.00,,,0.14,,2013-06-17 06:43:00,
2013-06-17 02:53:00,69.0,69.0,29.93,SSE,149,0.0,0.0,99,0.00,,,0.14,,2013-06-17 06:53:00,
2013-06-17 03:02:00,69.0,69.0,29.93,SSE,149,0.0,0.0,99,0.00,,,0.14,,2013-06-17 07:02:00,
2013-06-17 03:12:00,69.0,69.0,29.92,SSE,149,0.0,1.0,99,0.00,,,0.14,,2013-06-17 07:12:00,
2013-06-17 03:22:00,69.0,69.0,29.92,SSE,149,0.0,1.0,99,0.00,,,0.14,,2013-06-17 07:22:00,
2013-06-17 03:33:00,69.0,69.0,29.92,SSE,149,0.0,0.0,100,0.00,,,0.14,,2013-06-17 07:33:00,
2013-06-17 03:43:00,69.0,69.0,29.93,SSE,149,0.0,0.0,100,0.00,,,0.14,,2013-06-17 07:43:00,
2013-06-17 03:53:00,69.0,69.0,29.92,SSE,149,0.0,0.0,100,0.00,,,0.14,,2013-06-17 07:53:00,
2013-06-17 04:02:00,69.0,69.0,29.92,SSE,149,0.0,0.0,100,0.00,,,0.14,,2013-06-17 08:02:00,
2013-06-17 04:11:00,69.0,69.0,29.92,SSE,149,0.0,0.0,100,0.00,,,0.14,,2013-06-17 08:11:00,
2013-06-17 04:22:00,69.0,69.0,29.92,SSE,149,0.0,0.0,100,0.00,,,0.14,,2013-06-17 08:22:00,
2013-06-17 04:34:00,69.0,69.0,29.92,SSE,149,0.0,0.0,100,0.00,,,0.14,,2013-06-17 08:34:00,
2013-06-17 04:43:00,69.0,69.0,29.92,SSE,149,0.0,0.0,100,0.00,,,0.14,,2013-06-17 08:43:00,
2013-06-17 04:53:00,68.0,68.0,29.92,SSE,149,0.0,0.0,100,0.00,,,0.14,,2013-06-17 08:53:00,
2013-06-17 05:02:00,68.0,68.0,29.92,SSE,149,0.0,1.0,100,0.00,,,0.14,,2013-06-17 09:02:00,
2013-06-17 05:12:00,68.0,68.0,29.93,SSE,149,0.0,1.0,100,0.00,,,0.14,,2013-06-17 09:12:00,
2013-06-17 05:22:00,68.0,68.0,29.93,SSE,149,0.0,2.0,100,0.00,,,0.14,,2013-06-17 09:22:00,
2013-06-17 05:34:00,68.0,68.0,29.93,SSE,149,0.0,1.0,100,0.00,,,0.14,,2013-06-17 09:34:00,
2013-06-17 05:43:00,68.0,68.0,29.92,SSE,149,0.0,4.0,100,0.00,,,0.14,,2013-06-17 09:43:00,
2013-06-17 05:52:00,67.0,67.0,29.93,SSE,149,0.0,0.0,100,0.00,,,0.14,,2013-06-17 09:52:00,
2013-06-17 06:02:00,67.0,67.0,29.93,SSE,149,0.0,2.0,100,0.00,,,0.14,,2013-06-17 10:02:00,
2013-06-17 06:12:00,67.0,67.0,29.92,SSE,149,0.0,1.0,100,0.00,,,0.14,,2013-06-17 10:12:00,
2013-06-17 06:22:00,67.0,67.0,29.92,SSE,149,0.0,0.0,100,0.00,,,0.14,,2013-06-17 10:22:00,
2013-06-17 06:33:00,67.0,67.0,29.93,SSE,149,0.0,0.0,100,0.00,,,0.14,,2013-06-17 10:33:00,
2013-06-17 06:43:00,67.0,67.0,29.93,SSE,149,0.0,1.0,100,0.00,,,0.14,,2013-06-17 10:43:00,
2013-06-17 06:53:00,67.0,67.0,29.93,SSE,149,0.0,0.0,100,0.00,,,0.14,,2013-06-17 10:53:00,
2013-06-17 07:02:00,67.0,67.0,29.93,SSE,149,0.0,2.0,100,0.01,,,0.15,,2013-06-17 11:02:00,
2013-06-17 07:12:00,66.0,66.0,29.93,SSE,149,0.0,3.0,100,0.01,,,0.15,,2013-06-17 11:12:00,
2013-06-17 07:23:00,66.0,66.0,29.92,SSE,149,0.0,3.0,100,0.01,,,0.15,,2013-06-17 11:23:00,
2013-06-17 07:33:00,67.0,67.0,29.93,SSE,149,0.0,2.0,100,0.01,,,0.15,,2013-06-17 11:33:00,
2013-06-17 07:43:00,67.0,67.0,29.93,SSE,149,0.0,2.0,100,0.01,,,0.15,,2013-06-17 11:43:00,
2013-06-17 07:53:00,67.0,67.0,29.93,SSE,149,0.0,2.0,100,0.01,,,0.15,,2013-06-17 11:53:00,
2013-06-17 08:02:00,68.0,68.0,29.94,SSE,149,0.0,2.0,100,0.00,,,0.15,,2013-06-17 12:02:00,
2013-06-17 08:12:00,68.0,68.0,29.94,SSE,149,0.0,1.0,100,0.00,,,0.15,,2013-06-17 12:12:00,
2013-06-17 08:23:00,68.0,68.0,29.94,SSE,149,0.0,1.0,100,0.00,,,0.15,,2013-06-17 12:23:00,
2013-06-17 08:33:00,69.0,69.0,29.94,SSE,149,0.0,2.0,100,0.00,,,0.15,,2013-06-17 12:33:00,
2013-06-17 08:43:00,69.0,69.0,29.94,SSE,149,0.0,1.0,100,0.00,,,0.15,,2013-06-17 12:43:00,
2013-06-17 08:53:00,70.0,70.0,29.94,SSE,149,0.0,1.0,100,0.00,,,0.15,,2013-06-17 12:53:00,
2013-06-17 09:01:00,70.0,70.0,29.94,SSE,149,0.0,1.0,100,0.00,,,0.15,,2013-06-17 13:01:00,
2013-06-17 09:12:00,70.0,70.0,29.94,SSE,149,0.0,1.0,100,0.00,,,0.15,,2013-06-17 13:12:00,
2013-06-17 09:22:00,70.0,70.0,29.94,South,172,0.0,2.0,100,0.00,,,0.15,,2013-06-17 13:22:00,
2013-06-17 09:32:00,71.0,71.0,29.94,South,172,0.0,2.0,99,0.00,,,0.15,,2013-06-17 13:32:00,
2013-06-17 09:43:00,72.0,71.0,29.94,South,172,0.0,3.0,97,0.00,,,0.15,,2013-06-17 13:43:00,
2013-06-17 09:52:00,73.0,71.0,29.94,South,172,0.0,1.0,95,0.00,,,0.15,,2013-06-17 13:52:00,
2013-06-17 10:02:00,74.0,72.0,29.94,South,180,0.0,2.0,92,0.00,,,0.15,,2013-06-17 14:02:00,
2013-06-17 10:12:00,74.0,71.0,29.94,South,180,0.0,3.0,91,0.00,,,0.15,,2013-06-17 14:12:00,
2013-06-17 10:22:00,75.0,72.0,29.94,South,180,0.0,1.0,91,0.00,,,0.15,,2013-06-17 14:22:00,
2013-06-17 10:34:00,75.0,72.0,29.94,South,180,0.0,2.0,90,0.00,,,0.15,,2013-06-17 14:34:00,
2013-06-17 10:43:00,77.0,73.0,29.94,South,180,0.0,1.0,88,0.00,,,0.15,,2013-06-17 14:43:00,
2013-06-17 10:53:00,77.0,73.0,29.94,South,178,0.0,4.0,87,0.00,,,0.15,,2013-06-17 14:53:00,
2013-06-17 11:02:00,77.0,72.0,29.94,South,177,0.0,2.0,86,0.00,,,0.14,,2013-06-17 15:02:00,
2013-06-17 11:12:00,77.0,72.0,29.94,SSE,157,0.0,2.0,85,0.00,,,0.14,,2013-06-17 15:12:00,
2013-06-17 11:22:00,78.0,74.0,29.93,SE,137,0.0,3.0,88,0.00,,,0.13,,2013-06-17 15:22:00,
2013-06-17 11:33:00,78.0,73.0,29.93,East,93,0.0,5.0,85,0.00,,,0.13,,2013-06-17 15:33:00,
2013-06-17 11:43:00,79.0,73.0,29.93,East,93,0.0,2.0,83,0.00,,,0.12,,2013-06-17 15:43:00,
2013-06-17 11:52:00,79.0,74.0,29.93,East,93,0.0,2.0,84,0.00,,,0.12,,2013-06-17 15:52:00,
2013-06-17 12:02:00,79.0,73.0,29.93,SE,130,0.0,4.0,83,0.00,,,0.12,,2013-06-17 16:02:00,
2013-06-17 12:12:00,79.0,73.0,29.93,ESE,104,0.0,5.0,83,0.00,,,0.12,,2013-06-17 16:12:00,
2013-06-17 12:22:00,80.0,74.0,29.93,ENE,75,1.0,5.0,83,0.00,,,0.12,,2013-06-17 16:22:00,
2013-06-17 12:33:00,80.0,74.0,29.92,East,84,0.0,5.0,83,0.00,,,0.12,,2013-06-17 16:33:00,
2013-06-17 12:43:00,80.0,73.0,29.92,SSE,162,0.0,4.0,80,0.00,,,0.12,,2013-06-17 16:43:00,
2013-06-17 12:53:00,81.0,74.0,29.92,ESE,102,0.0,6.0,79,0.00,,,0.12,,2013-06-17 16:53:00,
2013-06-17 13:02:00,82.0,73.0,29.92,SE,125,0.0,4.0,75,0.00,,,0.12,,2013-06-17 17:02:00,
2013-06-17 13:12:00,82.0,74.0,29.92,ESE,107,0.0,5.0,77,0.00,,,0.12,,2013-06-17 17:12:00,
2013-06-17 13:22:00,83.0,75.0,29.92,East,97,0.0,3.0,78,0.00,,,0.12,,2013-06-17 17:22:00,
2013-06-17 13:33:00,82.0,74.0,29.92,SE,143,0.0,7.0,78,0.00,,,0.12,,2013-06-17 17:33:00,
2013-06-17 13:43:00,83.0,75.0,29.92,SSE,165,0.0,1.0,76,0.00,,,0.10,,2013-06-17 17:43:00,
2013-06-17 13:52:00,83.0,73.0,29.92,SE,138,0.0,3.0,72,0.00,,,0.08,,2013-06-17 17:52:00,
2013-06-17 14:02:00,83.0,73.0,29.92,SE,138,0.0,1.0,73,0.00,,,0.07,,2013-06-17 18:02:00,
2013-06-17 14:12:00,84.0,74.0,29.92,East,94,1.0,6.0,71,0.00,,,0.06,,2013-06-17 18:12:00,
2013-06-17 14:23:00,83.0,73.0,29.91,East,97,0.0,5.0,72,0.00,,,0.06,,2013-06-17 18:23:00,
2013-06-17 14:33:00,83.0,73.0,29.91,East,100,0.0,2.0,71,0.00,,,0.05,,2013-06-17 18:33:00,
2013-06-17 14:43:00,83.0,75.0,29.91,East,96,0.0,1.0,76,0.00,,,0.04,,2013-06-17 18:43:00,
2013-06-17 14:53:00,84.0,73.0,29.91,East,96,0.0,3.0,70,0.00,,,0.04,,2013-06-17 18:53:00,
2013-06-17 15:02:00,84.0,74.0,29.90,East,96,0.0,5.0,72,0.00,,,0.02,,2013-06-17 19:02:00,
2013-06-17 15:11:00,85.0,73.0,29.89,East,86,1.0,5.0,67,0.00,,,0.01,,2013-06-17 19:11:00,
2013-06-17 15:22:00,85.0,73.0,29.89,East,86,0.0,5.0,68,0.00,,,0.01,,2013-06-17 19:22:00,
2013-06-17 15:33:00,85.0,74.0,29.89,SSE,163,0.0,5.0,69,0.00,,,0.01,,2013-06-17 19:33:00,
2013-06-17 15:43:00,86.0,73.0,29.88,ESE,111,0.0,2.0,66,0.00,,,0.01,,2013-06-17 19:43:00,
2013-06-17 15:53:00,86.0,72.0,29.87,East,101,0.0,5.0,64,0.00,,,0.01,,2013-06-17 19:53:00,
2013-06-17 16:02:00,86.0,73.0,29.87,East,86,0.0,3.0,66,0.00,,,0.01,,2013-06-17 20:02:00,
2013-06-17 16:11:00,86.0,75.0,29.86,East,86,0.0,3.0,70,0.00,,,0.01,,2013-06-17 20:11:00,
2013-06-17 16:22:00,85.0,74.0,29.86,East,86,0.0,0.0,69,0.00,,,0.01,,2013-06-17 20:22:00,
2013-06-17 16:34:00,85.0,75.0,29.85,East,86,0.0,0.0,72,0.00,,,0.01,,2013-06-17 20:34:00,
2013-06-17 16:43:00,85.0,74.0,29.85,East,86,0.0,3.0,70,0.00,,,0.01,,2013-06-17 20:43:00,
2013-06-17 16:52:00,85.0,74.0,29.84,East,86,0.0,3.0,69,0.00,,,0.01,,2013-06-17 20:52:00,
2013-06-17 17:01:00,85.0,73.0,29.84,East,86,0.0,2.0,67,0.00,,,0.01,,2013-06-17 21:01:00,
2013-06-17 17:12:00,85.0,74.0,29.84,East,86,0.0,0.0,69,0.00,,,0.01,,2013-06-17 21:12:00,
2013-06-17 17:22:00,84.0,72.0,29.84,East,86,0.0,0.0,68,0.00,,,0.01,,2013-06-17 21:22:00,
2013-06-17 17:33:00,84.0,74.0,29.84,East,86,0.0,0.0,72,0.00,,,0.01,,2013-06-17 21:33:00,
2013-06-17 17:43:00,83.0,73.0,29.84,East,86,0.0,0.0,73,0.00,,,0.01,,2013-06-17 21:43:00,
2013-06-17 17:52:00,83.0,73.0,29.84,East,86,0.0,0.0,73,0.00,,,0.01,,2013-06-17 21:52:00,
2013-06-17 18:01:00,82.0,74.0,29.84,East,86,0.0,0.0,78,0.00,,,0.01,,2013-06-17 22:01:00,
2013-06-17 18:11:00,81.0,73.0,29.83,East,86,0.0,0.0,78,0.00,,,0.01,,2013-06-17 22:11:00,
2013-06-17 18:22:00,81.0,73.0,29.83,East,86,0.0,0.0,78,0.00,,,0.01,,2013-06-17 22:22:00,
2013-06-17 18:34:00,80.0,74.0,29.83,East,86,0.0,0.0,81,0.00,,,0.01,,2013-06-17 22:34:00,
2013-06-17 18:43:00,80.0,74.0,29.83,East,86,0.0,0.0,81,0.00,,,0.01,,2013-06-17 22:43:00,
2013-06-17 18:53:00,80.0,74.0,29.84,East,86,0.0,0.0,81,0.00,,,0.01,,2013-06-17 22:53:00,
2013-06-17 19:02:00,80.0,74.0,29.84,East,86,0.0,0.0,81,0.00,,,0.01,,2013-06-17 23:02:00,
2013-06-17 19:11:00,79.0,73.0,29.84,East,86,0.0,0.0,83,0.00,,,0.01,,2013-06-17 23:11:00,
2013-06-17 19:22:00,79.0,73.0,29.83,East,86,0.0,0.0,83,0.00,,,0.01,,2013-06-17 23:22:00,
2013-06-17 19:32:00,79.0,74.0,29.83,East,86,0.0,0.0,85,0.00,,,0.01,,2013-06-17 23:32:00,
2013-06-17 19:42:00,78.0,73.0,29.84,East,86,0.0,0.0,85,0.00,,,0.01,,2013-06-17 23:42:00,
2013-06-17 19:53:00,78.0,73.0,29.84,East,86,0.0,0.0,84,0.00,,,0.01,,2013-06-17 23:53:00,
2013-06-17 20:01:00,78.0,73.0,29.86,East,86,0.0,0.0,84,0.00,,,0.01,,2013-06-18 00:01:00,
2013-06-17 20:12:00,77.0,72.0,29.85,East,86,0.0,0.0,85,0.00,,,0.01,,2013-06-18 00:12:00,
2013-06-17 20:22:00,77.0,72.0,29.85,East,86,0.0,0.0,85,0.00,,,0.01,,2013-06-18 00:22:00,
2013-06-17 20:33:00,77.0,72.0,29.85,East,86,0.0,0.0,84,0.00,,,0.01,,2013-06-18 00:33:00,
2013-06-17 20:43:00,77.0,72.0,29.85,East,86,0.0,0.0,85,0.00,,,0.01,,2013-06-18 00:43:00,
2013-06-17 20:52:00,77.0,72.0,29.85,East,86,0.0,0.0,85,0.00,,,0.01,,2013-06-18 00:52:00,
2013-06-17 21:01:00,77.0,72.0,29.87,East,92,2.0,14.0,84,0.00,,,0.01,,2013-06-18 01:01:00,
2013-06-17 21:11:00,73.0,68.0,29.90,South,169,6.0,19.0,83,0.00,,,0.01,,2013-06-18 01:11:00,
2013-06-17 21:23:00,68.0,66.0,29.92,SW,218,4.0,13.0,92,0.08,,,0.09,,2013-06-18 01:23:00,
2013-06-17 21:34:00,66.0,65.0,29.89,SSW,213,4.0,10.0,95,0.31,,,0.32,,2013-06-18 01:34:00,
2013-06-17 21:53:00,65.0,64.0,29.88,South,191,1.0,5.0,97,0.46,,,0.47,,2013-06-18 01:53:00,
2013-06-17 22:02:00,65.0,64.0,29.87,SW,218,1.0,6.0,97,0.46,,,0.47,,2013-06-18 02:02:00,
2013-06-17 22:11:00,65.0,64.0,29.87,SW,220,0.0,4.0,97,0.46,,,0.47,,2013-06-18 02:11:00,
2013-06-17 22:22:00,65.0,64.0,29.89,SSW,199,0.0,4.0,98,0.46,,,0.47,,2013-06-18 02:22:00,
2013-06-17 22:34:00,65.0,64.0,29.89,SW,221,0.0,2.0,98,0.22,,,0.47,,2013-06-18 02:34:00,
2013-06-17 22:43:00,65.0,64.0,29.90,SSE,164,0.0,3.0,98,0.08,,,0.47,,2013-06-18 02:43:00,
2013-06-17 22:53:00,65.0,64.0,29.89,SSE,152,0.0,4.0,98,0.00,,,0.47,,2013-06-18 02:53:00,
2013-06-17 23:02:00,65.0,64.0,29.89,SSE,152,0.0,2.0,98,0.00,,,0.47,,2013-06-18 03:02:00,
2013-06-17 23:12:00,65.0,64.0,29.90,SSE,152,0.0,0.0,98,0.00,,,0.47,,2013-06-18 03:12:00,
2013-06-17 23:23:00,65.0,64.0,29.90,SSE,152,0.0,1.0,98,0.00,,,0.47,,2013-06-18 03:23:00,
2013-06-17 23:34:00,65.0,65.0,29.89,SSE,152,0.0,1.0,99,0.00,,,0.47,,2013-06-18 03:34:00,
2013-06-17 23:43:00,65.0,65.0,29.89,SSE,152,0.0,1.0,99,0.00,,,0.47,,2013-06-18 03:43:00,
2013-06-17 23:53:00,65.0,65.0,29.89,SSE,152,0.0,0.0,99,0.00,,,0.47,,2013-06-18 03:53:00,